Time,TemperatureF,DewpointF,PressureIn,WindDirection,WindDirectionDegrees,WindSpeedMPH,WindSpeedGustMPH,Humidity,HourlyPrecipIn,Conditions,Clouds,dailyrainin,SolarRadiationWatts/m^2,SoftwareType,DateUTC
2013-09-13 00:13:00,47.0,46.0,-100.00,NNW,340,2.0,3.0,95,0.00,,,0.01,0.000000,,2013-09-13 05:13:00,
2013-09-13 00:22:00,47.0,46.0,-100.00,NNW,340,2.0,3.0,95,0.00,,,0.01,0.000000,,2013-09-13 05:22:00,
2013-09-13 00:33:00,47.0,46.0,-100.00,NNW,340,2.0,3.0,95,0.00,,,0.01,0.000000,,2013-09-13 05:33:00,
2013-09-13 01:12:00,46.0,44.0,-100.00,NE,36,1.0,5.0,94,0.00,,,0.01,0.000000,,2013-09-13 06:12:00,
2013-09-13 01:22:00,46.0,44.0,-100.00,NE,36,1.0,5.0,94,0.00,,,0.01,0.000000,,2013-09-13 06:22:00,
2013-09-13 01:32:00,46.0,44.0,-100.00,NE,36,1.0,5.0,94,0.00,,,0.01,0.000000,,2013-09-13 06:32:00,
2013-09-13 02:11:00,45.0,43.0,-100.00,NE,48,3.0,6.0,91,0.00,,,0.01,0.000000,,2013-09-13 07:11:00,
2013-09-13 02:22:00,45.0,43.0,-100.00,NE,48,3.0,6.0,91,0.00,,,0.01,0.000000,,2013-09-13 07:22:00,
2013-09-13 02:33:00,45.0,43.0,-100.00,NE,48,3.0,6.0,91,0.00,,,0.01,0.000000,,2013-09-13 07:33:00,
2013-09-13 03:11:00,42.0,40.0,-100.00,SW,217,0.0,3.0,94,0.00,,,0.01,0.000000,,2013-09-13 08:11:00,
2013-09-13 03:22:00,42.0,40.0,-100.00,SW,217,0.0,3.0,94,0.00,,,0.01,0.000000,,2013-09-13 08:22:00,
2013-09-13 03:32:00,42.0,40.0,-100.00,SW,217,0.0,3.0,94,0.00,,,0.01,0.000000,,2013-09-13 08:32:00,
2013-09-13 04:12:00,38.0,37.0,-100.00,South,191,0.0,2.0,98,0.00,,,0.01,0.000000,,2013-09-13 09:12:00,
2013-09-13 04:21:00,38.0,37.0,-100.00,South,191,0.0,2.0,98,0.00,,,0.01,0.000000,,2013-09-13 09:21:00,
2013-09-13 04:33:00,38.0,37.0,-100.00,South,191,0.0,2.0,98,0.00,,,0.01,0.000000,,2013-09-13 09:33:00,
2013-09-13 05:13:00,36.0,35.0,-100.00,South,190,0.0,0.0,98,0.00,,,0.01,0.000000,,2013-09-13 10:13:00,
2013-09-13 05:23:00,36.0,35.0,-100.00,South,190,0.0,0.0,98,0.00,,,0.01,0.000000,,2013-09-13 10:23:00,
2013-09-13 05:33:00,36.0,35.0,-100.00,South,190,0.0,0.0,98,0.00,,,0.01,0.000000,,2013-09-13 10:33:00,
2013-09-13 06:12:00,34.0,34.0,-100.00,South,191,0.0,0.0,98,0.00,,,0.01,0.000000,,2013-09-13 11:12:00,
2013-09-13 06:22:00,34.0,34.0,-100.00,South,191,0.0,0.0,98,0.00,,,0.01,0.000000,,2013-09-13 11:22:00,
2013-09-13 06:33:00,34.0,34.0,-100.00,South,191,0.0,0.0,98,0.00,,,0.01,0.000000,,2013-09-13 11:33:00,
2013-09-13 07:12:00,34.0,34.0,-100.00,SSW,196,0.0,0.0,98,0.00,,,0.00,1.000000,,2013-09-13 12:12:00,
2013-09-13 07:22:00,34.0,34.0,-100.00,SSW,196,0.0,0.0,98,0.00,,,0.00,1.000000,,2013-09-13 12:22:00,
2013-09-13 07:32:00,34.0,34.0,-100.00,SSW,196,0.0,0.0,98,0.00,,,0.00,1.000000,,2013-09-13 12:32:00,
2013-09-13 08:11:00,35.0,34.0,-100.00,SSW,194,0.0,0.0,98,0.00,,,0.00,22.000000,,2013-09-13 13:11:00,
2013-09-13 08:21:00,35.0,34.0,-100.00,SSW,194,0.0,0.0,98,0.00,,,0.00,22.000000,,2013-09-13 13:21:00,
2013-09-13 08:32:00,35.0,34.0,-100.00,SSW,194,0.0,0.0,98,0.00,,,0.00,22.000000,,2013-09-13 13:32:00,
2013-09-13 09:11:00,46.0,42.0,-100.00,East,100,1.0,2.0,85,0.00,,,0.00,233.000000,,2013-09-13 14:11:00,
2013-09-13 09:22:00,46.0,42.0,-100.00,East,100,1.0,2.0,85,0.00,,,0.00,233.000000,,2013-09-13 14:22:00,
2013-09-13 09:32:00,46.0,42.0,-100.00,East,100,1.0,2.0,85,0.00,,,0.00,233.000000,,2013-09-13 14:32:00,
2013-09-13 10:11:00,51.0,43.0,-100.00,NNE,31,5.0,13.0,73,0.00,,,0.00,440.000000,,2013-09-13 15:11:00,
2013-09-13 10:22:00,51.0,43.0,-100.00,NNE,31,5.0,13.0,73,0.00,,,0.00,440.000000,,2013-09-13 15:22:00,
2013-09-13 10:33:00,51.0,43.0,-100.00,NNE,31,5.0,13.0,73,0.00,,,0.00,440.000000,,2013-09-13 15:33:00,
2013-09-13 11:12:00,53.0,40.0,-100.00,NE,56,8.0,11.0,62,0.00,,,0.00,605.000000,,2013-09-13 16:12:00,
2013-09-13 11:24:00,53.0,40.0,-100.00,NE,56,8.0,11.0,62,0.00,,,0.00,605.000000,,2013-09-13 16:24:00,
2013-09-13 11:32:00,53.0,40.0,-100.00,NE,56,8.0,11.0,62,0.00,,,0.00,605.000000,,2013-09-13 16:32:00,
2013-09-13 12:13:00,56.0,41.0,-100.00,North,6,6.0,12.0,57,0.00,,,0.00,739.000000,,2013-09-13 17:13:00,
2013-09-13 12:24:00,56.0,41.0,-100.00,North,6,6.0,12.0,57,0.00,,,0.00,739.000000,,2013-09-13 17:24:00,
2013-09-13 12:33:00,56.0,41.0,-100.00,North,6,6.0,12.0,57,0.00,,,0.00,739.000000,,2013-09-13 17:33:00,
2013-09-13 13:12:00,57.0,41.0,-100.00,NNE,30,6.0,11.0,56,0.00,,,0.00,742.000000,,2013-09-13 18:12:00,
2013-09-13 13:22:00,57.0,41.0,-100.00,NNE,30,6.0,11.0,56,0.00,,,0.00,742.000000,,2013-09-13 18:22:00,
2013-09-13 13:32:00,57.0,41.0,-100.00,NNE,30,6.0,11.0,56,0.00,,,0.00,742.000000,,2013-09-13 18:32:00,
2013-09-13 14:11:00,58.0,43.0,-100.00,NE,54,6.0,10.0,57,0.00,,,0.00,731.000000,,2013-09-13 19:11:00,
2013-09-13 14:22:00,58.0,43.0,-100.00,NE,54,6.0,10.0,57,0.00,,,0.00,731.000000,,2013-09-13 19:22:00,
2013-09-13 14:32:00,58.0,43.0,-100.00,NE,54,6.0,10.0,57,0.00,,,0.00,731.000000,,2013-09-13 19:32:00,
2013-09-13 15:11:00,60.0,42.0,-100.00,NNE,18,4.0,10.0,52,0.00,,,0.00,722.000000,,2013-09-13 20:11:00,
2013-09-13 15:22:00,60.0,42.0,-100.00,NNE,18,4.0,10.0,52,0.00,,,0.00,722.000000,,2013-09-13 20:22:00,
2013-09-13 15:32:00,60.0,42.0,-100.00,NNE,18,4.0,10.0,52,0.00,,,0.00,722.000000,,2013-09-13 20:32:00,
2013-09-13 16:12:00,60.0,41.0,-100.00,North,10,6.0,12.0,50,0.00,,,0.00,590.000000,,2013-09-13 21:12:00,
2013-09-13 16:22:00,60.0,41.0,-100.00,North,10,6.0,12.0,50,0.00,,,0.00,590.000000,,2013-09-13 21:22:00,
2013-09-13 16:34:00,60.0,41.0,-100.00,North,10,6.0,12.0,50,0.00,,,0.00,590.000000,,2013-09-13 21:34:00,
2013-09-13 17:13:00,57.0,44.0,-100.00,ESE,109,2.0,8.0,61,0.00,,,0.00,418.000000,,2013-09-13 22:13:00,
2013-09-13 17:24:00,57.0,44.0,-100.00,ESE,109,2.0,8.0,61,0.00,,,0.00,418.000000,,2013-09-13 22:24:00,
2013-09-13 17:33:00,57.0,44.0,-100.00,ESE,109,2.0,8.0,61,0.00,,,0.00,418.000000,,2013-09-13 22:33:00,
2013-09-13 18:12:00,61.0,42.0,-100.00,NW,322,3.0,8.0,50,0.00,,,0.00,245.000000,,2013-09-13 23:12:00,
2013-09-13 18:22:00,61.0,42.0,-100.00,NW,322,3.0,8.0,50,0.00,,,0.00,245.000000,,2013-09-13 23:22:00,
2013-09-13 18:33:00,61.0,42.0,-100.00,NW,322,3.0,8.0,50,0.00,,,0.00,245.000000,,2013-09-13 23:33:00,
2013-09-13 19:12:00,55.0,44.0,-100.00,NNW,333,1.0,4.0,67,0.00,,,0.00,89.000000,,2013-09-14 00:12:00,
2013-09-13 19:22:00,55.0,44.0,-100.00,NNW,333,1.0,4.0,67,0.00,,,0.00,89.000000,,2013-09-14 00:22:00,
2013-09-13 19:32:00,55.0,44.0,-100.00,NNW,333,1.0,4.0,67,0.00,,,0.00,89.000000,,2013-09-14 00:32:00,
2013-09-13 20:11:00,48.0,45.0,-100.00,South,179,0.0,0.0,90,0.00,,,0.00,8.000000,,2013-09-14 01:11:00,
2013-09-13 20:22:00,48.0,45.0,-100.00,South,179,0.0,0.0,90,0.00,,,0.00,8.000000,,2013-09-14 01:22:00,
2013-09-13 20:33:00,48.0,45.0,-100.00,South,179,0.0,0.0,90,0.00,,,0.00,8.000000,,2013-09-14 01:33:00,
2013-09-13 21:12:00,44.0,43.0,-100.00,SW,222,0.0,0.0,96,0.00,,,0.00,0.000000,,2013-09-14 02:12:00,
2013-09-13 21:22:00,44.0,43.0,-100.00,SW,222,0.0,0.0,96,0.00,,,0.00,0.000000,,2013-09-14 02:22:00,
2013-09-13 21:33:00,44.0,43.0,-100.00,SW,222,0.0,0.0,96,0.00,,,0.00,0.000000,,2013-09-14 02:33:00,
2013-09-13 22:12:00,42.0,41.0,-100.00,SSW,203,0.0,2.0,98,0.00,,,0.00,0.000000,,2013-09-14 03:12:00,
2013-09-13 22:22:00,42.0,41.0,-100.00,SSW,203,0.0,2.0,98,0.00,,,0.00,0.000000,,2013-09-14 03:22:00,
2013-09-13 22:34:00,42.0,41.0,-100.00,SSW,203,0.0,2.0,98,0.00,,,0.00,0.000000,,2013-09-14 03:34:00,
2013-09-13 23:14:00,40.0,39.0,-100.00,SSW,195,0.0,0.0,98,0.00,,,0.00,0.000000,,2013-09-14 04:14:00,
2013-09-13 23:24:00,40.0,39.0,-100.00,SSW,195,0.0,0.0,98,0.00,,,0.00,0.000000,,2013-09-14 04:24:00,
2013-09-13 23:34:00,40.0,39.0,-100.00,SSW,195,0.0,0.0,98,0.00,,,0.00,0.000000,,2013-09-14 04:34:00,